Time,TemperatureF,DewpointF,PressureIn,WindDirection,WindDirectionDegrees,WindSpeedMPH,WindSpeedGustMPH,Humidity,HourlyPrecipIn,Conditions,Clouds,dailyrainin,SoftwareType,DateUTC
2013-02-08 00:01:00,26.6,23.2,29.97,North,0,0.0,0.0,87,0.00,,,0.00,meteohub,2013-02-08 06:01:00,
2013-02-08 00:06:00,26.4,23.4,29.97,North,0,0.0,0.0,88,0.00,,,0.00,meteohub,2013-02-08 06:06:00,
2013-02-08 00:11:00,26.4,23.4,29.97,North,0,0.0,0.0,88,0.00,,,0.00,meteohub,2013-02-08 06:11:00,
2013-02-08 00:16:00,26.2,22.8,29.97,North,0,0.0,0.0,87,0.00,,,0.00,meteohub,2013-02-08 06:16:00,
2013-02-08 00:21:00,26.2,22.8,29.98,North,0,0.0,0.0,87,0.00,,,0.00,meteohub,2013-02-08 06:21:00,
2013-02-08 00:26:00,26.1,22.6,29.97,North,0,0.0,0.0,87,0.00,,,0.00,meteohub,2013-02-08 06:26:00,
2013-02-08 00:31:00,25.9,22.5,29.98,North,0,0.0,0.0,87,0.00,,,0.00,meteohub,2013-02-08 06:31:00,
2013-02-08 00:36:00,25.9,22.5,29.98,North,0,0.0,0.0,87,0.00,,,0.00,meteohub,2013-02-08 06:36:00,
2013-02-08 00:41:00,25.7,22.5,29.98,North,0,0.0,0.0,87,0.00,,,0.00,meteohub,2013-02-08 06:41:00,
2013-02-08 00:46:00,25.5,22.3,29.99,North,0,0.0,0.0,87,0.00,,,0.00,meteohub,2013-02-08 06:46:00,
2013-02-08 00:52:00,25.3,22.1,29.99,North,0,0.0,0.0,87,0.00,,,0.00,meteohub,2013-02-08 06:52:00,
2013-02-08 00:57:00,25.2,21.6,29.99,North,0,0.0,0.0,86,0.00,,,0.00,meteohub,2013-02-08 06:57:00,
2013-02-08 01:02:00,25.2,21.6,29.99,North,0,0.0,0.0,86,0.00,,,0.00,meteohub,2013-02-08 07:02:00,
2013-02-08 01:07:00,25.0,21.4,29.99,North,0,0.0,0.0,86,0.00,,,0.00,meteohub,2013-02-08 07:07:00,
2013-02-08 01:12:00,25.0,21.4,29.99,North,0,0.0,0.0,86,0.00,,,0.00,meteohub,2013-02-08 07:12:00,
2013-02-08 01:17:00,25.0,21.4,30.00,North,0,0.0,0.0,86,0.00,,,0.00,meteohub,2013-02-08 07:17:00,
2013-02-08 01:22:00,24.8,21.2,30.01,North,0,0.0,0.0,86,0.00,,,0.00,meteohub,2013-02-08 07:22:00,
2013-02-08 01:27:00,24.8,21.2,30.01,North,0,0.0,0.0,86,0.00,,,0.00,meteohub,2013-02-08 07:27:00,
2013-02-08 01:32:00,24.6,21.4,30.01,North,0,0.0,0.0,87,0.00,,,0.00,meteohub,2013-02-08 07:32:00,
2013-02-08 01:37:00,24.6,21.4,30.01,North,0,0.0,0.0,87,0.00,,,0.00,meteohub,2013-02-08 07:37:00,
2013-02-08 01:42:00,24.6,21.4,30.01,North,0,0.0,0.0,87,0.00,,,0.00,meteohub,2013-02-08 07:42:00,
2013-02-08 01:47:00,24.6,21.4,30.01,North,0,0.0,0.0,87,0.00,,,0.00,meteohub,2013-02-08 07:47:00,
2013-02-08 01:52:00,24.8,21.2,30.01,North,0,0.0,0.0,86,0.00,,,0.00,meteohub,2013-02-08 07:52:00,
2013-02-08 01:57:00,24.8,21.2,30.01,North,0,0.0,0.0,86,0.00,,,0.00,meteohub,2013-02-08 07:57:00,
2013-02-08 02:02:00,24.8,21.2,30.01,North,0,0.0,0.0,86,0.00,,,0.00,meteohub,2013-02-08 08:02:00,
2013-02-08 02:07:00,24.8,21.2,30.01,North,0,0.0,0.0,86,0.00,,,0.00,meteohub,2013-02-08 08:07:00,
2013-02-08 02:12:00,24.6,21.4,30.02,North,0,0.0,0.0,87,0.00,,,0.00,meteohub,2013-02-08 08:12:00,
2013-02-08 02:17:00,24.6,21.4,30.02,North,0,0.0,0.0,87,0.00,,,0.00,meteohub,2013-02-08 08:17:00,
2013-02-08 02:22:00,24.6,21.4,30.03,North,0,0.0,0.0,87,0.00,,,0.00,meteohub,2013-02-08 08:22:00,
2013-02-08 02:27:00,24.6,21.4,30.03,North,0,0.0,0.0,87,0.00,,,0.00,meteohub,2013-02-08 08:27:00,
2013-02-08 02:32:00,24.6,21.4,30.03,North,0,0.0,0.0,87,0.00,,,0.00,meteohub,2013-02-08 08:32:00,
2013-02-08 02:37:00,24.6,21.0,30.02,North,0,0.0,0.0,86,0.00,,,0.00,meteohub,2013-02-08 08:37:00,
2013-02-08 02:43:00,24.6,21.0,30.02,North,0,0.0,0.0,86,0.00,,,0.00,meteohub,2013-02-08 08:43:00,
2013-02-08 02:48:00,24.6,21.0,30.03,North,0,0.0,0.0,86,0.00,,,0.00,meteohub,2013-02-08 08:48:00,
2013-02-08 02:53:00,24.4,20.8,30.03,North,0,0.0,0.0,86,0.00,,,0.00,meteohub,2013-02-08 08:53:00,
2013-02-08 02:58:00,24.4,20.8,30.03,North,0,0.0,0.0,86,0.00,,,0.00,meteohub,2013-02-08 08:58:00,
2013-02-08 03:03:00,24.4,20.8,30.03,North,0,0.0,0.0,86,0.00,,,0.00,meteohub,2013-02-08 09:03:00,
2013-02-08 03:08:00,24.4,20.8,30.04,North,0,0.0,0.0,86,0.00,,,0.00,meteohub,2013-02-08 09:08:00,
2013-02-08 03:13:00,24.3,20.7,30.04,North,0,0.0,0.0,86,0.00,,,0.00,meteohub,2013-02-08 09:13:00,
2013-02-08 03:18:00,24.3,20.7,30.04,North,0,0.0,0.0,86,0.00,,,0.00,meteohub,2013-02-08 09:18:00,
2013-02-08 03:23:00,24.1,20.3,30.04,North,0,0.0,0.0,85,0.00,,,0.00,meteohub,2013-02-08 09:23:00,
2013-02-08 03:28:00,23.9,20.1,30.04,North,0,0.0,0.0,85,0.00,,,0.00,meteohub,2013-02-08 09:28:00,
2013-02-08 03:33:00,23.7,19.9,30.04,North,0,0.0,0.0,85,0.00,,,0.00,meteohub,2013-02-08 09:33:00,
2013-02-08 03:38:00,23.4,19.2,30.04,North,0,0.0,0.0,84,0.00,,,0.00,meteohub,2013-02-08 09:38:00,
2013-02-08 03:43:00,23.2,19.0,30.04,North,0,0.0,0.0,84,0.00,,,0.00,meteohub,2013-02-08 09:43:00,
2013-02-08 03:48:00,23.0,18.7,30.04,North,0,0.0,0.0,83,0.00,,,0.00,meteohub,2013-02-08 09:48:00,
2013-02-08 03:53:00,22.8,18.7,30.05,North,0,0.0,0.0,84,0.00,,,0.00,meteohub,2013-02-08 09:53:00,
2013-02-08 03:58:00,22.6,18.5,30.06,North,0,0.0,0.0,84,0.00,,,0.00,meteohub,2013-02-08 09:58:00,
2013-02-08 04:03:00,22.6,18.5,30.06,North,0,0.0,0.0,84,0.00,,,0.00,meteohub,2013-02-08 10:03:00,
2013-02-08 04:08:00,22.6,18.5,30.06,North,0,0.0,0.0,84,0.00,,,0.00,meteohub,2013-02-08 10:08:00,
2013-02-08 04:13:00,22.6,18.5,30.06,North,0,0.0,0.0,84,0.00,,,0.00,meteohub,2013-02-08 10:13:00,
2013-02-08 04:18:00,22.6,18.5,30.07,North,0,0.0,0.0,84,0.00,,,0.00,meteohub,2013-02-08 10:18:00,
2013-02-08 04:23:00,22.6,18.5,30.07,North,0,0.0,0.0,84,0.00,,,0.00,meteohub,2013-02-08 10:23:00,
2013-02-08 04:29:00,22.8,18.7,30.07,North,0,0.0,0.0,84,0.00,,,0.00,meteohub,2013-02-08 10:29:00,
2013-02-08 04:34:00,23.0,18.7,30.08,North,0,0.0,0.0,83,0.00,,,0.00,meteohub,2013-02-08 10:34:00,
2013-02-08 04:39:00,23.0,18.7,30.08,North,0,0.0,0.0,83,0.00,,,0.00,meteohub,2013-02-08 10:39:00,
2013-02-08 04:44:00,23.0,18.7,30.09,North,0,0.0,0.0,83,0.00,,,0.00,meteohub,2013-02-08 10:44:00,
2013-02-08 04:49:00,23.2,18.9,30.09,North,0,0.0,0.0,83,0.00,,,0.00,meteohub,2013-02-08 10:49:00,
2013-02-08 04:54:00,23.2,18.9,30.09,North,0,0.0,0.0,83,0.00,,,0.00,meteohub,2013-02-08 10:54:00,
2013-02-08 04:59:00,23.2,18.9,30.09,North,0,0.0,0.0,83,0.00,,,0.00,meteohub,2013-02-08 10:59:00,
2013-02-08 05:04:00,23.2,18.9,30.09,North,0,0.0,0.0,83,0.00,,,0.00,meteohub,2013-02-08 11:04:00,
2013-02-08 05:09:00,23.2,18.9,30.09,North,0,0.0,0.0,83,0.00,,,0.00,meteohub,2013-02-08 11:09:00,
2013-02-08 05:14:00,23.4,18.7,30.09,North,0,0.0,0.0,82,0.00,,,0.00,meteohub,2013-02-08 11:14:00,
2013-02-08 05:19:00,23.2,18.5,30.09,North,0,0.0,0.0,82,0.00,,,0.00,meteohub,2013-02-08 11:19:00,
2013-02-08 05:24:00,23.2,18.5,30.10,North,0,0.0,0.0,82,0.00,,,0.00,meteohub,2013-02-08 11:24:00,
2013-02-08 05:29:00,23.2,18.5,30.10,North,0,0.0,0.0,82,0.00,,,0.00,meteohub,2013-02-08 11:29:00,
2013-02-08 05:34:00,23.2,18.1,30.10,North,0,0.0,0.0,81,0.00,,,0.00,meteohub,2013-02-08 11:34:00,
2013-02-08 05:39:00,23.2,18.1,30.10,North,0,0.0,0.0,81,0.00,,,0.00,meteohub,2013-02-08 11:39:00,
2013-02-08 05:44:00,23.2,18.1,30.10,North,0,0.0,0.0,81,0.00,,,0.00,meteohub,2013-02-08 11:44:00,
2013-02-08 05:49:00,23.2,18.0,30.10,North,0,0.0,0.0,80,0.00,,,0.00,meteohub,2013-02-08 11:49:00,
2013-02-08 05:54:00,23.0,17.8,30.10,North,0,0.0,0.0,80,0.00,,,0.00,meteohub,2013-02-08 11:54:00,
2013-02-08 05:59:00,23.0,17.8,30.10,North,0,0.0,0.0,80,0.00,,,0.00,meteohub,2013-02-08 11:59:00,
2013-02-08 06:04:00,23.0,17.8,30.10,North,0,0.0,0.0,80,0.00,,,0.00,meteohub,2013-02-08 12:04:00,
2013-02-08 06:10:00,23.0,17.8,30.10,North,0,0.0,0.0,80,0.00,,,0.00,meteohub,2013-02-08 12:10:00,
2013-02-08 06:15:00,23.0,17.4,30.10,North,0,0.0,0.0,79,0.00,,,0.00,meteohub,2013-02-08 12:15:00,
2013-02-08 06:20:00,23.0,17.4,30.10,North,0,0.0,0.0,79,0.00,,,0.00,meteohub,2013-02-08 12:20:00,
2013-02-08 06:25:00,23.0,17.4,30.10,North,0,0.0,0.0,79,0.00,,,0.00,meteohub,2013-02-08 12:25:00,
2013-02-08 06:30:00,23.0,17.4,30.11,North,0,0.0,0.0,79,0.00,,,0.00,meteohub,2013-02-08 12:30:00,
2013-02-08 06:35:00,23.0,17.4,30.11,North,0,0.0,0.0,79,0.00,,,0.00,meteohub,2013-02-08 12:35:00,
2013-02-08 06:40:00,23.0,17.4,30.12,North,0,0.0,0.0,79,0.00,,,0.00,meteohub,2013-02-08 12:40:00,
2013-02-08 06:45:00,23.0,17.4,30.12,North,0,0.0,0.0,79,0.00,,,0.00,meteohub,2013-02-08 12:45:00,
2013-02-08 06:50:00,23.0,17.4,30.12,North,0,0.0,0.0,79,0.00,,,0.00,meteohub,2013-02-08 12:50:00,
2013-02-08 06:55:00,23.0,17.4,30.12,North,0,0.0,0.0,79,0.00,,,0.00,meteohub,2013-02-08 12:55:00,
2013-02-08 07:00:00,23.0,17.4,30.12,North,0,0.0,0.0,79,0.00,,,0.00,meteohub,2013-02-08 13:00:00,
2013-02-08 07:05:00,23.2,17.6,30.13,North,0,0.0,0.0,79,0.00,,,0.00,meteohub,2013-02-08 13:05:00,
2013-02-08 07:10:00,23.2,18.0,30.13,North,0,0.0,0.0,80,0.00,,,0.00,meteohub,2013-02-08 13:10:00,
2013-02-08 07:16:00,23.2,18.0,30.14,North,0,0.0,0.0,80,0.00,,,0.00,meteohub,2013-02-08 13:16:00,
2013-02-08 07:21:00,23.2,18.0,30.14,North,0,0.0,0.0,80,0.00,,,0.00,meteohub,2013-02-08 13:21:00,
2013-02-08 07:26:00,23.2,18.0,30.14,North,0,0.0,0.0,80,0.00,,,0.00,meteohub,2013-02-08 13:26:00,
2013-02-08 07:31:00,23.2,18.0,30.14,North,0,0.0,0.0,80,0.00,,,0.00,meteohub,2013-02-08 13:31:00,
2013-02-08 07:36:00,23.4,17.8,30.15,North,0,0.0,0.0,79,0.00,,,0.00,meteohub,2013-02-08 13:36:00,
2013-02-08 07:41:00,23.4,17.8,30.15,North,0,0.0,0.0,79,0.00,,,0.00,meteohub,2013-02-08 13:41:00,
2013-02-08 07:46:00,23.4,17.8,30.15,North,0,0.0,0.0,79,0.00,,,0.00,meteohub,2013-02-08 13:46:00,
2013-02-08 07:51:00,23.4,17.8,30.16,North,0,0.0,0.0,79,0.00,,,0.00,meteohub,2013-02-08 13:51:00,
2013-02-08 07:56:00,23.4,17.8,30.16,North,0,0.0,0.0,79,0.00,,,0.00,meteohub,2013-02-08 13:56:00,
2013-02-08 08:01:00,23.4,18.1,30.16,North,0,0.0,0.0,80,0.00,,,0.00,meteohub,2013-02-08 14:01:00,
2013-02-08 08:06:00,23.4,17.8,30.16,North,0,0.0,0.0,79,0.00,,,0.00,meteohub,2013-02-08 14:06:00,
2013-02-08 08:11:00,23.4,17.8,30.17,North,0,0.0,0.0,79,0.00,,,0.00,meteohub,2013-02-08 14:11:00,
2013-02-08 08:16:00,23.5,18.0,30.17,North,0,0.0,0.0,79,0.00,,,0.00,meteohub,2013-02-08 14:16:00,
2013-02-08 08:21:00,23.5,18.0,30.17,North,0,0.0,0.0,79,0.00,,,0.00,meteohub,2013-02-08 14:21:00,
2013-02-08 08:26:00,23.5,18.0,30.17,North,0,0.0,0.0,79,0.00,,,0.00,meteohub,2013-02-08 14:26:00,
2013-02-08 08:31:00,23.5,17.8,30.17,North,0,0.0,0.0,78,0.00,,,0.00,meteohub,2013-02-08 14:31:00,
2013-02-08 08:36:00,23.5,17.8,30.17,North,0,0.0,0.0,78,0.00,,,0.00,meteohub,2013-02-08 14:36:00,
2013-02-08 08:41:00,23.5,17.8,30.17,North,0,0.0,0.0,78,0.00,,,0.00,meteohub,2013-02-08 14:41:00,
2013-02-08 08:46:00,23.5,17.4,30.18,North,0,0.0,0.0,77,0.00,,,0.00,meteohub,2013-02-08 14:46:00,
2013-02-08 08:52:00,23.5,17.4,30.18,North,0,0.0,0.0,77,0.00,,,0.00,meteohub,2013-02-08 14:52:00,
2013-02-08 08:57:00,23.5,17.4,30.18,North,0,0.0,0.0,77,0.00,,,0.00,meteohub,2013-02-08 14:57:00,
2013-02-08 09:02:00,23.5,17.1,30.18,North,0,0.0,0.0,76,0.00,,,0.00,meteohub,2013-02-08 15:02:00,
2013-02-08 09:07:00,23.7,17.2,30.19,North,0,0.0,0.0,76,0.00,,,0.00,meteohub,2013-02-08 15:07:00,
2013-02-08 09:12:00,23.7,17.2,30.19,North,0,0.0,0.0,76,0.00,,,0.00,meteohub,2013-02-08 15:12:00,
2013-02-08 09:17:00,23.7,16.9,30.19,North,0,0.0,0.0,75,0.00,,,0.00,meteohub,2013-02-08 15:17:00,
2013-02-08 09:22:00,23.7,16.9,30.19,North,0,0.0,0.0,75,0.00,,,0.00,meteohub,2013-02-08 15:22:00,
2013-02-08 09:27:00,23.9,17.1,30.19,North,0,0.0,0.0,75,0.00,,,0.00,meteohub,2013-02-08 15:27:00,
2013-02-08 09:32:00,24.1,17.2,30.20,North,0,0.0,0.0,75,0.00,,,0.00,meteohub,2013-02-08 15:32:00,
2013-02-08 09:37:00,24.3,17.4,30.19,North,0,0.0,0.0,75,0.00,,,0.00,meteohub,2013-02-08 15:37:00,
2013-02-08 09:42:00,24.3,17.2,30.19,North,0,0.0,0.0,74,0.00,,,0.00,meteohub,2013-02-08 15:42:00,
2013-02-08 09:47:00,24.6,17.6,30.19,North,0,0.0,0.0,74,0.00,,,0.00,meteohub,2013-02-08 15:47:00,
2013-02-08 09:52:00,24.6,17.2,30.19,North,0,0.0,0.0,73,0.00,,,0.00,meteohub,2013-02-08 15:52:00,
2013-02-08 09:57:00,24.8,17.1,30.19,NW,315,0.0,0.0,72,0.00,,,0.00,meteohub,2013-02-08 15:57:00,
2013-02-08 10:02:00,24.4,16.7,30.19,North,0,0.0,0.0,72,0.00,,,0.00,meteohub,2013-02-08 16:02:00,
2013-02-08 10:07:00,24.4,16.3,30.20,NE,45,0.0,0.0,71,0.00,,,0.00,meteohub,2013-02-08 16:07:00,
2013-02-08 10:12:00,24.4,16.0,30.20,NW,315,0.0,0.0,70,0.00,,,0.00,meteohub,2013-02-08 16:12:00,
2013-02-08 10:17:00,24.3,15.6,30.21,North,0,0.0,0.0,69,0.00,,,0.00,meteohub,2013-02-08 16:17:00,
2013-02-08 10:22:00,24.4,16.0,30.21,North,0,0.0,0.0,70,0.00,,,0.00,meteohub,2013-02-08 16:22:00,
2013-02-08 10:27:00,24.8,16.2,30.21,North,0,0.0,0.0,69,0.00,,,0.00,meteohub,2013-02-08 16:27:00,
2013-02-08 10:32:00,25.0,16.0,30.22,NW,315,0.0,0.0,68,0.00,,,0.00,meteohub,2013-02-08 16:32:00,
2013-02-08 10:37:00,25.3,16.3,30.22,North,0,0.0,0.0,68,0.00,,,0.00,meteohub,2013-02-08 16:37:00,
2013-02-08 10:42:00,26.2,17.1,30.22,North,0,0.0,0.0,68,0.00,,,0.00,meteohub,2013-02-08 16:42:00,
2013-02-08 10:47:00,26.1,16.3,30.22,WSW,248,0.0,0.0,66,0.00,,,0.00,meteohub,2013-02-08 16:47:00,
2013-02-08 10:52:00,26.1,16.3,30.23,North,0,0.0,0.0,66,0.00,,,0.00,meteohub,2013-02-08 16:52:00,
2013-02-08 10:57:00,26.6,16.0,30.23,NE,45,0.0,0.0,64,0.00,,,0.00,meteohub,2013-02-08 16:57:00,
2013-02-08 11:02:00,27.0,16.0,30.24,North,0,0.0,0.0,63,0.00,,,0.00,meteohub,2013-02-08 17:02:00,
2013-02-08 11:07:00,26.8,15.4,30.23,North,0,0.0,0.0,62,0.00,,,0.00,meteohub,2013-02-08 17:07:00,
2013-02-08 11:13:00,27.3,16.0,30.23,North,0,0.0,0.0,62,0.00,,,0.00,meteohub,2013-02-08 17:13:00,
2013-02-08 11:18:00,27.9,16.2,30.23,North,0,0.0,0.0,61,0.00,,,0.00,meteohub,2013-02-08 17:18:00,
2013-02-08 11:23:00,28.2,16.5,30.24,NW,315,0.0,0.0,61,0.00,,,0.00,meteohub,2013-02-08 17:23:00,
2013-02-08 11:28:00,28.4,18.1,30.24,North,0,0.0,0.0,65,0.00,,,0.00,meteohub,2013-02-08 17:28:00,
2013-02-08 11:33:00,28.6,17.6,30.24,NE,45,0.0,0.0,63,0.00,,,0.00,meteohub,2013-02-08 17:33:00,
2013-02-08 11:38:00,28.4,17.4,30.24,North,0,0.0,0.0,63,0.00,,,0.00,meteohub,2013-02-08 17:38:00,
2013-02-08 11:43:00,28.6,17.2,30.23,North,0,0.0,0.0,62,0.00,,,0.00,meteohub,2013-02-08 17:43:00,
2013-02-08 11:48:00,28.8,17.4,30.23,North,0,0.0,0.0,62,0.00,,,0.00,meteohub,2013-02-08 17:48:00,
2013-02-08 11:53:00,28.9,17.6,30.23,North,0,0.0,0.0,62,0.00,,,0.00,meteohub,2013-02-08 17:53:00,
2013-02-08 11:59:00,28.9,17.6,30.24,NE,45,0.0,0.0,62,0.00,,,0.00,meteohub,2013-02-08 17:59:00,
2013-02-08 12:04:00,29.1,17.8,30.24,NW,315,0.0,0.0,62,0.00,,,0.00,meteohub,2013-02-08 18:04:00,
2013-02-08 12:09:00,28.9,17.6,30.24,North,0,0.0,0.0,62,0.00,,,0.00,meteohub,2013-02-08 18:09:00,
2013-02-08 12:14:00,29.1,17.8,30.23,North,0,0.0,0.0,62,0.00,,,0.00,meteohub,2013-02-08 18:14:00,
2013-02-08 12:19:00,28.8,17.1,30.23,North,0,0.0,0.0,61,0.00,,,0.00,meteohub,2013-02-08 18:19:00,
2013-02-08 12:24:00,28.9,17.2,30.23,North,0,0.0,0.0,61,0.00,,,0.00,meteohub,2013-02-08 18:24:00,
2013-02-08 12:29:00,28.9,17.2,30.23,NW,315,0.0,0.0,61,0.00,,,0.00,meteohub,2013-02-08 18:29:00,
2013-02-08 12:34:00,29.3,18.0,30.23,North,0,0.0,0.0,62,0.00,,,0.00,meteohub,2013-02-08 18:34:00,
2013-02-08 12:40:00,29.3,18.0,30.24,NNW,338,0.0,0.0,62,0.00,,,0.00,meteohub,2013-02-08 18:40:00,
2013-02-08 12:45:00,30.0,18.1,30.24,North,0,0.0,0.0,61,0.00,,,0.00,meteohub,2013-02-08 18:45:00,
2013-02-08 12:50:00,30.0,17.8,30.25,North,0,0.0,0.0,60,0.00,,,0.00,meteohub,2013-02-08 18:50:00,
2013-02-08 12:56:00,30.0,17.8,30.24,North,0,0.0,0.0,60,0.00,,,0.00,meteohub,2013-02-08 18:56:00,
2013-02-08 13:01:00,29.8,17.6,30.24,North,0,0.0,0.0,60,0.00,,,0.00,meteohub,2013-02-08 19:01:00,
2013-02-08 13:06:00,29.7,17.4,30.25,North,0,0.0,0.0,60,0.00,,,0.00,meteohub,2013-02-08 19:06:00,
2013-02-08 13:11:00,30.0,17.8,30.25,North,0,0.0,0.0,60,0.00,,,0.00,meteohub,2013-02-08 19:11:00,
2013-02-08 13:16:00,30.0,17.8,30.25,NW,315,0.0,0.0,60,0.00,,,0.00,meteohub,2013-02-08 19:16:00,
2013-02-08 13:21:00,31.1,18.5,30.25,NW,315,0.0,0.0,59,0.00,,,0.00,meteohub,2013-02-08 19:21:00,
2013-02-08 13:26:00,30.9,18.0,30.24,North,0,0.0,0.0,58,0.00,,,0.00,meteohub,2013-02-08 19:26:00,
2013-02-08 13:31:00,30.6,17.1,30.24,North,0,0.0,0.0,57,0.00,,,0.00,meteohub,2013-02-08 19:31:00,
2013-02-08 13:36:00,30.4,17.4,30.24,North,0,0.0,0.0,58,0.00,,,0.00,meteohub,2013-02-08 19:36:00,
2013-02-08 13:41:00,30.2,17.2,30.25,North,0,0.0,0.0,58,0.00,,,0.00,meteohub,2013-02-08 19:41:00,
2013-02-08 13:47:00,30.2,17.2,30.24,North,0,0.0,0.0,58,0.00,,,0.00,meteohub,2013-02-08 19:47:00,
2013-02-08 13:52:00,30.4,17.4,30.24,North,0,0.0,0.0,58,0.00,,,0.00,meteohub,2013-02-08 19:52:00,
2013-02-08 13:57:00,30.0,17.4,30.25,NW,315,0.0,0.0,59,0.00,,,0.00,meteohub,2013-02-08 19:57:00,
2013-02-08 14:02:00,30.2,16.9,30.25,North,0,0.0,0.0,57,0.00,,,0.00,meteohub,2013-02-08 20:02:00,
2013-02-08 14:07:00,30.2,16.9,30.25,North,0,0.0,0.0,57,0.00,,,0.00,meteohub,2013-02-08 20:07:00,
2013-02-08 14:12:00,30.0,17.1,30.25,NE,45,0.0,0.0,58,0.00,,,0.00,meteohub,2013-02-08 20:12:00,
2013-02-08 14:17:00,30.2,16.9,30.26,North,0,0.0,0.0,57,0.00,,,0.00,meteohub,2013-02-08 20:17:00,
2013-02-08 14:22:00,30.4,17.1,30.25,North,0,0.0,0.0,57,0.00,,,0.00,meteohub,2013-02-08 20:22:00,
2013-02-08 14:27:00,30.2,16.3,30.26,North,0,0.0,0.0,56,0.00,,,0.00,meteohub,2013-02-08 20:27:00,
2013-02-08 14:32:00,30.4,17.1,30.27,North,0,0.0,0.0,57,0.00,,,0.00,meteohub,2013-02-08 20:32:00,
2013-02-08 14:37:00,30.4,16.5,30.27,North,0,0.0,0.0,56,0.00,,,0.00,meteohub,2013-02-08 20:37:00,
2013-02-08 14:42:00,30.2,16.3,30.26,North,0,0.0,0.0,56,0.00,,,0.00,meteohub,2013-02-08 20:42:00,
2013-02-08 14:47:00,30.0,16.7,30.27,North,0,0.0,0.0,57,0.00,,,0.00,meteohub,2013-02-08 20:47:00,
2013-02-08 14:52:00,30.4,17.1,30.27,North,0,0.0,0.0,57,0.00,,,0.00,meteohub,2013-02-08 20:52:00,
2013-02-08 14:57:00,30.2,16.9,30.27,North,0,0.0,0.0,57,0.00,,,0.00,meteohub,2013-02-08 20:57:00,
2013-02-08 15:02:00,30.4,17.1,30.27,North,0,0.0,0.0,57,0.00,,,0.00,meteohub,2013-02-08 21:02:00,
2013-02-08 15:07:00,30.2,16.9,30.27,North,0,0.0,0.0,57,0.00,,,0.00,meteohub,2013-02-08 21:07:00,
2013-02-08 15:13:00,30.0,16.7,30.27,NE,45,0.0,0.0,57,0.00,,,0.00,meteohub,2013-02-08 21:13:00,
2013-02-08 15:18:00,29.7,16.3,30.27,West,270,0.0,0.0,57,0.00,,,0.00,meteohub,2013-02-08 21:18:00,
2013-02-08 15:23:00,29.8,16.9,30.27,North,0,0.0,0.0,58,0.00,,,0.00,meteohub,2013-02-08 21:23:00,
2013-02-08 15:28:00,29.7,16.7,30.27,NW,315,0.0,0.0,58,0.00,,,0.00,meteohub,2013-02-08 21:28:00,
2013-02-08 15:33:00,29.8,16.9,30.27,NW,315,0.0,0.0,58,0.00,,,0.00,meteohub,2013-02-08 21:33:00,
2013-02-08 15:38:00,29.7,16.7,30.27,North,0,0.0,0.0,58,0.00,,,0.00,meteohub,2013-02-08 21:38:00,
2013-02-08 15:43:00,29.5,16.5,30.27,North,0,0.0,0.0,58,0.00,,,0.00,meteohub,2013-02-08 21:43:00,
2013-02-08 15:48:00,29.7,16.7,30.28,North,0,0.0,0.0,58,0.00,,,0.00,meteohub,2013-02-08 21:48:00,
2013-02-08 15:53:00,29.8,16.9,30.28,NE,45,0.0,0.0,58,0.00,,,0.00,meteohub,2013-02-08 21:53:00,
2013-02-08 15:58:00,29.7,16.7,30.28,North,0,0.0,0.0,58,0.00,,,0.00,meteohub,2013-02-08 21:58:00,
2013-02-08 16:03:00,30.0,17.1,30.28,NW,315,0.0,0.0,58,0.00,,,0.00,meteohub,2013-02-08 22:03:00,
2013-02-08 16:08:00,29.8,16.9,30.28,North,0,0.0,0.0,58,0.00,,,0.00,meteohub,2013-02-08 22:08:00,
2013-02-08 16:13:00,29.1,16.2,30.29,North,0,0.0,0.0,58,0.00,,,0.00,meteohub,2013-02-08 22:13:00,
2013-02-08 16:18:00,28.8,15.8,30.29,NE,45,0.0,0.0,58,0.00,,,0.00,meteohub,2013-02-08 22:18:00,
2013-02-08 16:24:00,28.6,15.6,30.29,North,0,0.0,0.0,58,0.00,,,0.00,meteohub,2013-02-08 22:24:00,
2013-02-08 16:29:00,28.0,14.0,30.28,North,0,0.0,0.0,55,0.00,,,0.00,meteohub,2013-02-08 22:29:00,
2013-02-08 16:34:00,27.9,13.8,30.29,North,0,0.0,0.0,55,0.00,,,0.00,meteohub,2013-02-08 22:34:00,
2013-02-08 16:39:00,27.9,13.8,30.29,NW,315,0.0,0.0,55,0.00,,,0.00,meteohub,2013-02-08 22:39:00,
2013-02-08 16:44:00,27.7,13.6,30.28,NE,45,0.0,0.0,55,0.00,,,0.00,meteohub,2013-02-08 22:44:00,
2013-02-08 16:49:00,27.3,13.6,30.28,NE,45,0.0,0.0,56,0.00,,,0.00,meteohub,2013-02-08 22:49:00,
2013-02-08 16:54:00,27.3,13.6,30.28,NW,315,0.0,0.0,56,0.00,,,0.00,meteohub,2013-02-08 22:54:00,
2013-02-08 16:59:00,27.0,13.3,30.28,NE,45,0.0,0.0,56,0.00,,,0.00,meteohub,2013-02-08 22:59:00,
2013-02-08 17:04:00,26.8,13.1,30.28,NE,45,0.0,0.0,56,0.00,,,0.00,meteohub,2013-02-08 23:04:00,
2013-02-08 17:09:00,26.4,13.6,30.28,NE,45,0.0,0.0,58,0.00,,,0.00,meteohub,2013-02-08 23:09:00,
2013-02-08 17:14:00,26.1,13.3,30.27,NE,45,0.0,0.0,58,0.00,,,0.00,meteohub,2013-02-08 23:14:00,
2013-02-08 17:19:00,25.5,12.7,30.27,NE,45,0.0,0.0,58,0.00,,,0.00,meteohub,2013-02-08 23:19:00,
2013-02-08 17:24:00,24.8,12.6,30.27,NE,45,0.0,0.0,59,0.00,,,0.00,meteohub,2013-02-08 23:24:00,
2013-02-08 17:29:00,24.4,12.9,30.27,NE,45,0.0,0.0,61,0.00,,,0.00,meteohub,2013-02-08 23:29:00,
2013-02-08 17:34:00,24.3,12.7,30.26,NE,45,0.0,0.0,61,0.00,,,0.00,meteohub,2013-02-08 23:34:00,
2013-02-08 17:40:00,24.1,12.9,30.27,NE,45,0.0,0.0,62,0.00,,,0.00,meteohub,2013-02-08 23:40:00,
2013-02-08 17:45:00,23.9,13.1,30.26,NE,45,0.0,0.0,63,0.00,,,0.00,meteohub,2013-02-08 23:45:00,
2013-02-08 17:50:00,23.7,12.9,30.26,North,0,0.0,0.0,63,0.00,,,0.00,meteohub,2013-02-08 23:50:00,
2013-02-08 17:55:00,23.5,12.7,30.26,NE,45,0.0,0.0,63,0.00,,,0.00,meteohub,2013-02-08 23:55:00,
2013-02-08 18:00:00,23.4,12.9,30.26,NE,45,0.0,0.0,64,0.00,,,0.00,meteohub,2013-02-09 00:00:00,
2013-02-08 18:05:00,23.4,12.9,30.26,NE,45,0.0,0.0,64,0.00,,,0.00,meteohub,2013-02-09 00:05:00,
2013-02-08 18:10:00,23.4,12.9,30.26,NE,45,0.0,0.0,64,0.00,,,0.00,meteohub,2013-02-09 00:10:00,
2013-02-08 18:15:00,23.4,12.9,30.25,East,90,0.0,0.0,64,0.00,,,0.00,meteohub,2013-02-09 00:15:00,
2013-02-08 18:20:00,23.2,12.7,30.25,East,90,0.0,0.0,64,0.00,,,0.00,meteohub,2013-02-09 00:20:00,
2013-02-08 18:25:00,23.2,13.1,30.25,East,90,0.0,0.0,65,0.00,,,0.00,meteohub,2013-02-09 00:25:00,
2013-02-08 18:30:00,23.2,13.1,30.25,East,90,0.0,0.0,65,0.00,,,0.00,meteohub,2013-02-09 00:30:00,
2013-02-08 18:35:00,23.2,13.1,30.25,East,90,0.0,0.0,65,0.00,,,0.00,meteohub,2013-02-09 00:35:00,
2013-02-08 18:40:00,23.2,13.1,30.25,East,90,0.0,0.0,65,0.00,,,0.00,meteohub,2013-02-09 00:40:00,
2013-02-08 18:45:00,23.2,13.1,30.24,East,90,0.0,0.0,65,0.00,,,0.00,meteohub,2013-02-09 00:45:00,
2013-02-08 18:50:00,23.2,13.1,30.24,East,90,0.0,0.0,65,0.00,,,0.00,meteohub,2013-02-09 00:50:00,
2013-02-08 18:56:00,23.0,12.9,30.24,East,90,0.0,0.0,65,0.00,,,0.00,meteohub,2013-02-09 00:56:00,
2013-02-08 19:01:00,23.0,12.9,30.24,East,90,0.0,0.0,65,0.00,,,0.00,meteohub,2013-02-09 01:01:00,
2013-02-08 19:06:00,22.8,13.1,30.23,East,90,0.0,0.0,66,0.00,,,0.00,meteohub,2013-02-09 01:06:00,
2013-02-08 19:11:00,22.6,13.3,30.23,East,90,0.0,0.0,67,0.00,,,0.00,meteohub,2013-02-09 01:11:00,
2013-02-08 19:16:00,22.6,13.3,30.23,East,90,0.0,0.0,67,0.00,,,0.00,meteohub,2013-02-09 01:16:00,
2013-02-08 19:21:00,22.5,13.1,30.23,East,90,0.0,0.0,67,0.00,,,0.00,meteohub,2013-02-09 01:21:00,
2013-02-08 19:26:00,22.5,13.1,30.23,East,90,0.0,0.0,67,0.00,,,0.00,meteohub,2013-02-09 01:26:00,
2013-02-08 19:31:00,22.3,12.9,30.23,East,90,0.0,0.0,67,0.00,,,0.00,meteohub,2013-02-09 01:31:00,
2013-02-08 19:36:00,22.1,13.1,30.23,East,90,0.0,0.0,68,0.00,,,0.00,meteohub,2013-02-09 01:36:00,
2013-02-08 19:41:00,21.9,12.9,30.23,East,90,0.0,0.0,68,0.00,,,0.00,meteohub,2013-02-09 01:41:00,
2013-02-08 19:46:00,21.7,13.1,30.23,East,90,0.0,0.0,69,0.00,,,0.00,meteohub,2013-02-09 01:46:00,
2013-02-08 19:51:00,21.6,12.9,30.23,East,90,0.0,0.0,69,0.00,,,0.00,meteohub,2013-02-09 01:51:00,
2013-02-08 19:56:00,21.4,13.1,30.23,SE,135,0.0,0.0,70,0.00,,,0.00,meteohub,2013-02-09 01:56:00,
2013-02-08 20:01:00,21.4,13.5,30.23,SE,135,0.0,0.0,71,0.00,,,0.00,meteohub,2013-02-09 02:01:00,
2013-02-08 20:06:00,21.2,13.6,30.23,SE,135,0.0,0.0,72,0.00,,,0.00,meteohub,2013-02-09 02:06:00,
2013-02-08 20:12:00,21.2,13.8,30.22,SE,135,0.0,0.0,73,0.00,,,0.00,meteohub,2013-02-09 02:12:00,
2013-02-08 20:17:00,21.2,13.8,30.22,East,90,0.0,0.0,73,0.00,,,0.00,meteohub,2013-02-09 02:17:00,
2013-02-08 20:22:00,21.2,13.8,30.22,East,90,0.0,0.0,73,0.00,,,0.00,meteohub,2013-02-09 02:22:00,
2013-02-08 20:27:00,21.0,14.0,30.22,SE,135,0.0,0.0,74,0.00,,,0.00,meteohub,2013-02-09 02:27:00,
2013-02-08 20:32:00,21.0,14.4,30.22,SE,135,0.0,0.0,75,0.00,,,0.00,meteohub,2013-02-09 02:32:00,
2013-02-08 20:37:00,20.8,14.2,30.22,East,90,0.0,0.0,75,0.00,,,0.00,meteohub,2013-02-09 02:37:00,
2013-02-08 20:42:00,20.8,14.2,30.22,East,90,0.0,0.0,75,0.00,,,0.00,meteohub,2013-02-09 02:42:00,
2013-02-08 20:47:00,20.7,14.0,30.21,East,90,0.0,0.0,75,0.00,,,0.00,meteohub,2013-02-09 02:47:00,
2013-02-08 20:52:00,20.1,13.5,30.22,East,90,0.0,0.0,75,0.00,,,0.00,meteohub,2013-02-09 02:52:00,
2013-02-08 20:57:00,19.9,13.3,30.21,East,90,0.0,0.0,75,0.00,,,0.00,meteohub,2013-02-09 02:57:00,
2013-02-08 21:02:00,19.8,13.1,30.21,East,90,0.0,0.0,75,0.00,,,0.00,meteohub,2013-02-09 03:02:00,
2013-02-08 21:07:00,19.8,13.1,30.21,SE,135,0.0,0.0,75,0.00,,,0.00,meteohub,2013-02-09 03:07:00,
2013-02-08 21:12:00,19.6,12.9,30.21,SE,135,0.0,0.0,75,0.00,,,0.00,meteohub,2013-02-09 03:12:00,
2013-02-08 21:17:00,19.4,13.1,30.22,East,90,0.0,0.0,76,0.00,,,0.00,meteohub,2013-02-09 03:17:00,
2013-02-08 21:22:00,19.4,13.1,30.21,SE,135,0.0,0.0,76,0.00,,,0.00,meteohub,2013-02-09 03:22:00,
2013-02-08 21:28:00,19.2,11.7,30.22,East,90,0.0,0.0,72,0.00,,,0.00,meteohub,2013-02-09 03:28:00,
2013-02-08 21:33:00,19.2,11.7,30.22,SE,135,0.0,0.0,72,0.00,,,0.00,meteohub,2013-02-09 03:33:00,
2013-02-08 21:38:00,19.0,11.5,30.22,SE,135,0.0,0.0,72,0.00,,,0.00,meteohub,2013-02-09 03:38:00,
2013-02-08 21:43:00,18.9,11.7,30.22,SE,135,0.0,0.0,73,0.00,,,0.00,meteohub,2013-02-09 03:43:00,
2013-02-08 21:48:00,18.9,11.3,30.22,SE,135,0.0,0.0,72,0.00,,,0.00,meteohub,2013-02-09 03:48:00,
2013-02-08 21:53:00,18.3,11.1,30.22,SE,135,0.0,0.0,73,0.00,,,0.00,meteohub,2013-02-09 03:53:00,
2013-02-08 21:58:00,18.3,11.1,30.22,SE,135,0.0,0.0,73,0.00,,,0.00,meteohub,2013-02-09 03:58:00,
2013-02-08 22:03:00,18.3,11.1,30.22,SE,135,0.0,0.0,73,0.00,,,0.00,meteohub,2013-02-09 04:03:00,
2013-02-08 22:08:00,18.1,10.9,30.22,SE,135,0.0,0.0,73,0.00,,,0.00,meteohub,2013-02-09 04:08:00,
2013-02-08 22:13:00,18.0,10.8,30.21,East,90,0.0,0.0,73,0.00,,,0.00,meteohub,2013-02-09 04:13:00,
2013-02-08 22:18:00,17.8,10.9,30.20,SE,135,0.0,0.0,74,0.00,,,0.00,meteohub,2013-02-09 04:18:00,
2013-02-08 22:23:00,17.8,10.9,30.20,SE,135,0.0,0.0,74,0.00,,,0.00,meteohub,2013-02-09 04:23:00,
2013-02-08 22:29:00,18.0,11.1,30.20,SE,135,0.0,0.0,74,0.00,,,0.00,meteohub,2013-02-09 04:29:00,
2013-02-08 22:34:00,18.0,11.1,30.20,ESE,113,0.0,0.0,74,0.00,,,0.00,meteohub,2013-02-09 04:34:00,
2013-02-08 22:39:00,17.8,10.9,30.20,SE,135,0.0,0.0,74,0.00,,,0.00,meteohub,2013-02-09 04:39:00,
2013-02-08 22:44:00,17.8,10.9,30.20,SE,135,0.0,0.0,74,0.00,,,0.00,meteohub,2013-02-09 04:44:00,
2013-02-08 22:49:00,17.8,10.9,30.20,SE,135,0.0,0.0,74,0.00,,,0.00,meteohub,2013-02-09 04:49:00,
2013-02-08 22:54:00,17.6,10.8,30.20,SE,135,0.0,0.0,74,0.00,,,0.00,meteohub,2013-02-09 04:54:00,
2013-02-08 22:59:00,17.6,10.8,30.20,SE,135,0.0,0.0,74,0.00,,,0.00,meteohub,2013-02-09 04:59:00,
2013-02-08 23:00:00,17.6,10.8,30.19,SE,135,0.0,0.0,74,0.00,,,0.00,meteohub,2013-02-09 05:00:00,
2013-02-08 23:01:00,17.6,10.8,30.19,SE,135,0.0,0.0,74,0.00,,,0.00,meteohub,2013-02-09 05:01:00,
2013-02-08 23:04:00,17.4,10.9,30.20,SE,135,0.0,0.0,75,0.00,,,0.00,meteohub,2013-02-09 05:04:00,
2013-02-08 23:05:00,17.4,10.9,30.20,SE,135,0.0,0.0,75,0.00,,,0.00,meteohub,2013-02-09 05:05:00,
2013-02-08 23:10:00,17.2,10.8,30.20,SE,135,0.0,0.0,75,0.00,,,0.00,meteohub,2013-02-09 05:10:00,
2013-02-08 23:15:00,17.2,10.8,30.20,SE,135,0.0,0.0,75,0.00,,,0.00,meteohub,2013-02-09 05:15:00,
2013-02-08 23:20:00,17.2,10.8,30.20,SE,135,0.0,0.0,75,0.00,,,0.00,meteohub,2013-02-09 05:20:00,
2013-02-08 23:26:00,17.1,10.6,30.20,SE,135,0.0,0.0,75,0.00,,,0.00,meteohub,2013-02-09 05:26:00,
2013-02-08 23:31:00,17.1,10.6,30.20,SE,135,0.0,0.0,75,0.00,,,0.00,meteohub,2013-02-09 05:31:00,
2013-02-08 23:36:00,17.2,10.8,30.19,SE,135,0.0,0.0,75,0.00,,,0.00,meteohub,2013-02-09 05:36:00,
2013-02-08 23:41:00,17.2,10.9,30.19,East,90,0.0,0.0,76,0.00,,,0.00,meteohub,2013-02-09 05:41:00,
2013-02-08 23:46:00,17.4,11.1,30.19,SE,135,0.0,0.0,76,0.00,,,0.00,meteohub,2013-02-09 05:46:00,
2013-02-08 23:51:00,17.4,11.1,30.20,South,180,0.0,0.0,76,0.00,,,0.00,meteohub,2013-02-09 05:51:00,
2013-02-08 23:56:00,17.2,10.9,30.20,SE,135,0.0,0.0,76,0.00,,,0.00,meteohub,2013-02-09 05:56:00,